Location: Absher
(46.5583°N, 107.9840°W)
Time: 13:33:01
(UTC+00:00)

O/OREOS (USA 219) - Visible Passes

Search period start: 21 March 2023 00:00
Search period end: 31 March 2023 00:00
Orbit: 621 x 646 km, 72.0° (Epoch: 22 May)

Date Brightness Start Highest point End Pass type
(mag) Time Alt. Az. Time Alt. Az. Time Alt. Az.
24 Mar ? 12:22:46 10° SSE 12:26:07 20° ESE 12:29:30 10° NE visible
26 Mar ? 11:30:22 10° ESE 11:31:14 10° E 11:32:07 10° E visible
27 Mar ? 11:49:20 10° SSE 11:52:54 23° ESE 11:56:27 10° NE visible
28 Mar ? 12:10:19 10° S 12:14:42 47° ESE 12:19:06 10° NE visible
29 Mar ? 10:56:20 10° ESE 10:58:00 12° E 10:59:39 10° ENE visible
30 Mar ? 11:15:57 10° SSE 11:19:40 25° ESE 11:23:23 10° NE visible
